| time (UTC) | temp F | wind direction | speed MPH | gust MPH | rain 1hr in | rain 24hr in | rain mn in | humidity % | barometer mb |
| 20260506023224 | 60 | 198 | 0.0 | 1.0 | 0.00 | 0.00 | 0.00 | 75 | 1006.8 |
| 20260506022224 | 60 | 198 | 0.0 | 1.0 | 0.00 | 0.00 | 0.00 | 73 | 1006.8 |
| 20260506021226 | 61 | 198 | 0.0 | 3.0 | 0.00 | 0.00 | 0.00 | 72 | 1006.8 |
| 20260506020226 | 61 | 198 | 0.0 | 0.0 | 0.00 | 0.00 | 0.00 | 71 | 1006.4 |
| 20260506015226 | 61 | 198 | 0.0 | 1.0 | 0.00 | 0.00 | 0.00 | 70 | 1006.4 |
| 20260506014442 | 62 | 198 | 0.0 | 3.0 | 0.00 | 0.00 | 0.00 | 69 | 1006.4 |
| 20260506013442 | 62 | 198 | 0.0 | 3.0 | 0.00 | 0.00 | 0.00 | 68 | 1006.4 |
| 20260506012226 | 62 | 198 | 0.0 | 3.0 | 0.00 | 0.00 | 0.00 | 66 | 1006.4 |
| 20260506011224 | 63 | 198 | 0.0 | 3.0 | 0.00 | 0.00 | 0.00 | 65 | 1006.4 |
| 20260506010224 | 62 | 197 | 1.0 | 4.0 | 0.00 | 0.00 | 0.00 | 65 | 1006.4 |
| 20260506005224 | 62 | 196 | 0.0 | 2.0 | 0.00 | 0.00 | 0.00 | 65 | 1006.1 |
| 20260506004224 | 62 | 196 | 0.0 | 0.0 | 0.00 | 0.00 | 0.00 | 66 | 1006.1 |
| 20260506003226 | 62 | 196 | 0.0 | 2.0 | 0.00 | 0.00 | 0.00 | 66 | 1005.8 |
| 20260506002226 | 62 | 196 | 0.0 | 2.0 | 0.00 | 0.00 | 0.00 | 66 | 1005.4 |
| 20260506001225 | 62 | 196 | 0.0 | 0.0 | 0.00 | 0.00 | 0.00 | 64 | 1005.4 |
| 20260506000441 | 63 | 196 | 0.0 | 1.0 | 0.00 | 0.00 | 0.00 | 63 | 1005.4 |
| 20260505235225 | 62 | 196 | 0.0 | 0.0 | 0.00 | 0.00 | 0.00 | 63 | 1005.4 |
| 20260505234225 | 62 | 196 | 0.0 | 0.0 | 0.00 | 0.00 | 0.00 | 62 | 1005.1 |
| 20260505233224 | 63 | 196 | 0.0 | 2.0 | 0.00 | 0.00 | 0.00 | 61 | 1005.1 |
| 20260505232224 | 62 | 196 | 0.0 | 0.0 | 0.00 | 0.00 | 0.00 | 61 | 1005.1 |
| 20260505231224 | 62 | 196 | 0.0 | 2.0 | 0.00 | 0.00 | 0.00 | 61 | 1004.7 |
| 20260505230227 | 62 | 196 | 0.0 | 1.0 | 0.00 | 0.00 | 0.00 | 61 | 1004.7 |
| 20260505225224 | 62 | 196 | 0.0 | 0.0 | 0.00 | 0.00 | 0.00 | 60 | 1004.4 |
| 20260505224225 | 62 | 196 | 0.0 | 0.0 | 0.00 | 0.00 | 0.00 | 60 | 1004.4 |
| 20260505223228 | 62 | 196 | 0.0 | 1.0 | 0.00 | 0.00 | 0.00 | 60 | 1004.4 |
| 20260505222224 | 62 | 196 | 0.0 | 3.0 | 0.00 | 0.00 | 0.00 | 59 | 1004.1 |
| 20260505221439 | 63 | 196 | 0.0 | 3.0 | 0.00 | 0.00 | 0.00 | 59 | 1004.1 |
| 20260505220225 | 63 | 196 | 0.0 | 3.0 | 0.00 | 0.00 | 0.00 | 59 | 1004.1 |
| 20260505215224 | 62 | 198 | 0.0 | 0.0 | 0.00 | 0.00 | 0.00 | 60 | 1003.7 |
| 20260505214225 | 62 | 198 | 0.0 | 2.0 | 0.00 | 0.00 | 0.00 | 59 | 1003.7 |
| 20260505213440 | 63 | 198 | 0.0 | 2.0 | 0.00 | 0.00 | 0.00 | 58 | 1003.7 |
| 20260505212227 | 63 | 198 | 0.0 | 5.0 | 0.00 | 0.00 | 0.00 | 58 | 1003.7 |
| 20260505211226 | 63 | 207 | 2.0 | 5.0 | 0.00 | 0.00 | 0.00 | 58 | 1003.4 |
| 20260505210224 | 63 | 190 | 0.0 | 6.0 | 0.00 | 0.00 | 0.00 | 57 | 1003.0 |
| 20260505205227 | 64 | 223 | 0.0 | 11.0 | 0.00 | 0.00 | 0.00 | 56 | 1003.0 |
| 20260505204227 | 64 | 167 | 4.0 | 9.0 | 0.00 | 0.00 | 0.00 | 56 | 1003.0 |
| 20260505203226 | 64 | 198 | 3.0 | 6.0 | 0.00 | 0.00 | 0.00 | 55 | 1003.0 |
| 20260505202228 | 64 | 175 | 2.0 | 7.0 | 0.00 | 0.00 | 0.00 | 55 | 1002.7 |
| 20260505201226 | 65 | 199 | 0.0 | 10.0 | 0.00 | 0.00 | 0.00 | 54 | 1002.7 |
| 20260505200227 | 65 | 188 | 5.0 | 7.0 | 0.00 | 0.00 | 0.00 | 53 | 1002.7 |
| 20260505195441 | 66 | 185 | 3.0 | 4.0 | 0.00 | 0.00 | 0.00 | 52 | 1002.4 |
| 20260505194226 | 66 | 234 | 0.0 | 9.0 | 0.00 | 0.00 | 0.00 | 51 | 1002.7 |
| 20260505193226 | 66 | 236 | 2.0 | 7.0 | 0.00 | 0.00 | 0.00 | 50 | 1002.4 |
| 20260505192229 | 67 | 165 | 1.0 | 7.0 | 0.00 | 0.00 | 0.00 | 49 | 1002.4 |
| 20260505191442 | 67 | 209 | 0.0 | 7.0 | 0.00 | 0.00 | 0.00 | 49 | 1002.7 |
| 20260505190225 | 68 | 217 | 0.0 | 8.0 | 0.00 | 0.00 | 0.00 | 48 | 1002.4 |
| 20260505185226 | 68 | 220 | 0.0 | 7.0 | 0.00 | 0.00 | 0.00 | 47 | 1002.4 |
| 20260505184225 | 69 | 243 | 0.0 | 8.0 | 0.00 | 0.00 | 0.00 | 47 | 1002.4 |
| 20260505183226 | 69 | 194 | 4.0 | 7.0 | 0.00 | 0.00 | 0.00 | 47 | 1002.4 |
| 20260505182227 | 70 | 184 | 0.0 | 8.0 | 0.00 | 0.00 | 0.00 | 46 | 1002.4 |
| 20260505181225 | 70 | 178 | 2.0 | 7.0 | 0.00 | 0.00 | 0.00 | 45 | 1002.4 |
| 20260505180225 | 71 | 214 | 0.0 | 5.0 | 0.00 | 0.00 | 0.00 | 45 | 1002.4 |
| 20260505175225 | 72 | 194 | 0.0 | 11.0 | 0.00 | 0.00 | 0.00 | 44 | 1002.4 |
| 20260505174227 | 72 | 202 | 0.0 | 8.0 | 0.00 | 0.00 | 0.00 | 43 | 1002.4 |
| 20260505173226 | 73 | 193 | 1.0 | 10.0 | 0.00 | 0.00 | 0.00 | 43 | 1002.4 |
| 20260505172225 | 73 | 209 | 0.0 | 6.0 | 0.00 | 0.00 | 0.00 | 43 | 1002.4 |
| 20260505171225 | 74 | 214 | 0.0 | 6.0 | 0.00 | 0.00 | 0.00 | 42 | 1002.4 |
| 20260505170225 | 74 | 197 | 0.0 | 7.0 | 0.00 | 0.00 | 0.00 | 41 | 1002.4 |
| 20260505165440 | 75 | 183 | 0.0 | 6.0 | 0.00 | 0.00 | 0.00 | 39 | 1002.4 |
| 20260505164224 | 75 | 183 | 0.0 | 6.0 | 0.00 | 0.00 | 0.00 | 39 | 1002.4 |
| 20260505163225 | 76 | 214 | 2.0 | 9.0 | 0.00 | 0.00 | 0.00 | 38 | 1002.4 |
| 20260505162225 | 78 | 195 | 0.0 | 6.0 | 0.00 | 0.00 | 0.00 | 36 | 1002.4 |
| 20260505161224 | 78 | 191 | 5.0 | 6.0 | 0.00 | 0.00 | 0.00 | 35 | 1002.7 |
| 20260505160225 | 78 | 197 | 0.0 | 11.0 | 0.00 | 0.00 | 0.00 | 34 | 1002.7 |
| 20260505153228 | 80 | 212 | 3.0 | 10.0 | 0.00 | 0.00 | 0.00 | 33 | 1002.7 |
| 20260505152226 | 81 | 192 | 0.0 | 11.0 | 0.00 | 0.00 | 0.00 | 31 | 1002.7 |
| 20260505151227 | 81 | 196 | 0.0 | 11.0 | 0.00 | 0.00 | 0.00 | 30 | 1002.7 |
| 20260505150224 | 82 | 200 | 0.0 | 6.0 | 0.00 | 0.00 | 0.00 | 29 | 1002.7 |
| 20260505140224 | 83 | 232 | 1.0 | 6.0 | 0.00 | 0.00 | 0.00 | 25 | 1003.7 |
| 20260505130226 | 82 | 176 | 0.0 | 4.0 | 0.00 | 0.00 | 0.00 | 26 | 1004.4 |
| 20260505124226 | 81 | 237 | 0.0 | 3.0 | 0.00 | 0.00 | 0.00 | 31 | 1004.7 |
| 20260505123229 | 80 | 238 | 0.0 | 12.0 | 0.00 | 0.00 | 0.00 | 34 | 1005.1 |
| 20260505122440 | 80 | 220 | 0.0 | 8.0 | 0.00 | 0.00 | 0.00 | 36 | 1005.4 |
| 20260505121227 | 79 | 189 | 0.0 | 4.0 | 0.00 | 0.00 | 0.00 | 35 | 1005.4 |
| 20260505120225 | 79 | 180 | 0.0 | 11.0 | 0.00 | 0.00 | 0.00 | 35 | 1005.8 |
| 20260505115226 | 79 | 196 | 5.0 | 10.0 | 0.00 | 0.00 | 0.00 | 36 | 1005.8 |
| 20260505114440 | 78 | 208 | 0.0 | 8.0 | 0.00 | 0.00 | 0.00 | 36 | 1005.8 |
| 20260505113227 | 78 | 229 | 0.0 | 7.0 | 0.00 | 0.00 | 0.00 | 38 | 1005.8 |
| 20260505112227 | 76 | 243 | 0.0 | 9.0 | 0.00 | 0.00 | 0.00 | 39 | 1006.1 |
| 20260505111224 | 76 | 198 | 6.0 | 8.0 | 0.00 | 0.00 | 0.00 | 39 | 1006.1 |
| 20260505110440 | 75 | 238 | 1.0 | 5.0 | 0.00 | 0.00 | 0.00 | 41 | 1006.4 |
| 20260505101439 | 73 | 200 | 5.0 | 8.0 | 0.00 | 0.00 | 0.00 | 43 | 1006.8 |
| 20260505100441 | 72 | 195 | 0.0 | 6.0 | 0.00 | 0.00 | 0.00 | 45 | 1007.1 |
| 20260505095225 | 71 | 175 | 0.0 | 4.0 | 0.00 | 0.00 | 0.00 | 46 | 1007.1 |
| 20260505094227 | 71 | 177 | 0.0 | 2.0 | 0.00 | 0.00 | 0.00 | 47 | 1007.5 |
| 20260505093225 | 70 | 177 | 0.0 | 1.0 | 0.00 | 0.00 | 0.00 | 48 | 1007.5 |
| 20260505092225 | 70 | 177 | 0.0 | 0.0 | 0.00 | 0.00 | 0.00 | 49 | 1007.5 |
| 20260505091226 | 69 | 177 | 0.0 | 7.0 | 0.00 | 0.00 | 0.00 | 48 | 1007.5 |
| 20260505090224 | 69 | 207 | 0.0 | 3.0 | 0.00 | 0.00 | 0.00 | 50 | 1007.8 |
| 20260505085227 | 68 | 207 | 0.0 | 1.0 | 0.00 | 0.00 | 0.00 | 52 | 1007.8 |
| 20260505084225 | 68 | 207 | 0.0 | 4.0 | 0.00 | 0.00 | 0.00 | 53 | 1007.8 |
| 20260505083226 | 68 | 207 | 0.0 | 0.0 | 0.00 | 0.00 | 0.00 | 54 | 1007.8 |
| 20260505082225 | 67 | 207 | 0.0 | 1.0 | 0.00 | 0.00 | 0.00 | 53 | 1007.8 |
| 20260505081226 | 66 | 207 | 0.0 | 2.0 | 0.00 | 0.00 | 0.00 | 57 | 1007.8 |
| 20260505080227 | 64 | 207 | 0.0 | 0.0 | 0.00 | 0.00 | 0.00 | 59 | 1008.1 |
| 20260505075227 | 64 | 207 | 0.0 | 0.0 | 0.00 | 0.00 | 0.00 | 61 | 1008.1 |
| 20260505074440 | 63 | 207 | 0.0 | 0.0 | 0.00 | 0.00 | 0.00 | 61 | 1008.1 |
| 20260505073225 | 62 | 207 | 0.0 | 0.0 | 0.00 | 0.00 | 0.00 | 61 | 1008.1 |
| 20260505072228 | 62 | 207 | 0.0 | 0.0 | 0.00 | 0.00 | 0.00 | 61 | 1008.1 |
| 20260505071224 | 62 | 207 | 0.0 | 0.0 | 0.00 | 0.00 | 0.00 | 63 | 1008.1 |
| 20260505070227 | 61 | 207 | 0.0 | 0.0 | 0.00 | 0.00 | 0.00 | 63 | 1008.1 |
| 20260505065226 | 60 | 207 | 0.0 | 0.0 | 0.00 | 0.00 | 0.00 | 63 | 1008.1 |
| 20260505064226 | 60 | 207 | 0.0 | 0.0 | 0.00 | 0.00 | 0.00 | 65 | 1008.1 |
| 20260505063226 | 58 | 207 | 0.0 | 1.0 | 0.00 | 0.00 | 0.00 | 66 | 1008.1 |
| 20260505062439 | 58 | 207 | 0.0 | 1.0 | 0.00 | 0.00 | 0.00 | 66 | 1008.1 |
| 20260505061223 | 58 | 207 | 0.0 | 1.0 | 0.00 | 0.00 | 0.00 | 66 | 1008.1 |
| 20260505060226 | 57 | 207 | 0.0 | 0.0 | 0.00 | 0.00 | 0.00 | 67 | 1008.1 |
| 20260505055440 | 56 | 207 | 0.0 | 0.0 | 0.00 | 0.00 | 0.00 | 69 | 1008.1 |
| 20260505054227 | 55 | 207 | 0.0 | 0.0 | 0.00 | 0.00 | 0.00 | 73 | 1008.5 |
| 20260505053226 | 54 | 207 | 0.0 | 0.0 | 0.00 | 0.00 | 0.00 | 73 | 1008.1 |
| 20260505052227 | 53 | 207 | 0.0 | 0.0 | 0.00 | 0.00 | 0.00 | 74 | 1008.1 |
| 20260505051226 | 52 | 207 | 0.0 | 0.0 | 0.00 | 0.00 | 0.00 | 77 | 1008.1 |
| 20260505050227 | 52 | 207 | 0.0 | 0.0 | 0.00 | 0.00 | 0.00 | 80 | 1008.1 |
| 20260505041225 | 48 | 207 | 0.0 | 0.0 | 0.00 | 0.00 | 0.00 | 84 | 1008.1 |
| 20260505040226 | 48 | 207 | 0.0 | 0.0 | 0.00 | 0.00 | 0.00 | 84 | 1008.1 |
| 20260505035225 | 48 | 207 | 0.0 | 0.0 | 0.00 | 0.00 | 0.00 | 84 | 1008.1 |
| 20260505034225 | 48 | 207 | 0.0 | 0.0 | 0.00 | 0.00 | 0.00 | 84 | 1007.8 |
| 20260505033226 | 48 | 207 | 0.0 | 0.0 | 0.00 | 0.00 | 0.00 | 83 | 1008.1 |
| 20260505032225 | 48 | 207 | 0.0 | 0.0 | 0.00 | 0.00 | 0.00 | 83 | 1007.8 |
| 20260505031226 | 48 | 207 | 0.0 | 0.0 | 0.00 | 0.00 | 0.00 | 82 | 1008.1 |
| 20260505030225 | 49 | 207 | 0.0 | 0.0 | 0.00 | 0.00 | 0.00 | 81 | 1008.1 |
| 20260505025225 | 49 | 207 | 0.0 | 0.0 | 0.00 | 0.00 | 0.00 | 81 | 1008.1 |
| 20260505024224 | 49 | 207 | 0.0 | 0.0 | 0.00 | 0.00 | 0.00 | 80 | 1008.1 |